DW8248 Weather Reports


time (UTC)temp
C
wind
direction
speed
KPH
gust
KPH
rain 1hr
cm
rain 24hr
cm
rain mn
cm
humidity
%
barometer
mb
20260506192632 27 120 9.7 17.7 0.00 0.00 0.00 69 1016.1
20260506191621 27 109 9.7 17.7 0.00 0.00 0.00 70 1016.1
20260506190600 27 127 9.7 20.9 0.00 0.00 0.00 70 1016.3
20260506185607 27 106 11.3 20.9 0.00 0.00 0.00 71 1016.4
20260506183414 27 131 12.9 19.3 0.00 0.00 0.00 71 1016.5
20260506182426 27 105 11.3 17.7 0.00 0.00 0.00 73 1016.6
20260506181428 27 129 11.3 19.3 0.00 0.00 0.00 73 1016.8
20260506180424 27 113 11.3 19.3 0.00 0.00 0.00 74 1016.9
20260506175440 27 134 9.7 19.3 0.00 0.00 0.00 73 1017.0
20260506174459 27 87 12.9 19.3 0.00 0.00 0.00 74 1016.9
20260506173448 27 114 9.7 19.3 0.00 0.00 0.00 74 1017.0
20260506171230 27 114 9.7 17.7 0.00 0.00 0.00 75 1017.2
20260506170201 27 153 9.7 17.7 0.00 0.00 0.00 75 1017.1
20260506165204 26 89 8.0 16.1 0.00 0.00 0.00 75 1017.3
20260506164159 26 94 8.0 16.1 0.00 0.00 0.00 75 1017.3
20260506163128 26 129 9.7 16.1 0.00 0.00 0.00 75 1017.3
20260506162122 27 90 6.4 17.7 0.00 0.00 0.00 75 1017.3
20260506160003 26 140 9.7 19.3 0.00 0.00 0.00 75 1017.4
20260506153911 26 86 9.7 16.1 0.00 0.00 0.00 75 1017.5
20260506151720 26 147 9.7 16.1 0.00 0.00 0.00 75 1017.4
20260506150732 26 130 8.0 14.5 0.00 0.00 0.00 74 1017.4
20260506145732 26 116 8.0 14.5 0.00 0.00 0.00 75 1017.3
20260506144738 26 91 9.7 17.7 0.00 0.00 0.00 75 1017.3
20260506143732 26 140 8.0 19.3 0.00 0.00 0.00 76 1017.3
20260506142740 26 113 9.7 19.3 0.00 0.00 0.00 76 1017.3
20260506141734 26 132 9.7 16.1 0.00 0.00 0.00 76 1017.1
20260506140700 26 132 9.7 19.3 0.00 0.00 0.00 76 1017.2
20260506135627 26 149 9.7 19.3 0.00 0.00 0.00 76 1017.1
20260506134610 26 140 9.7 16.1 0.00 0.00 0.00 77 1017.0
20260506133610 26 173 8.0 19.3 0.00 0.00 0.00 77 1017.0
20260506132630 25 155 11.3 19.3 0.00 0.00 0.00 78 1016.9
20260506131553 25 126 9.7 17.7 0.00 0.00 0.00 79 1016.7
20260506130526 25 162 3.2 8.0 0.00 0.00 0.00 81 1016.5
20260506125524 24 164 4.8 8.0 0.00 0.00 0.00 82 1016.7
20260506124506 24 173 3.2 8.0 0.00 0.00 0.00 82 1016.6
20260506123433 24 177 0.0 0.0 0.00 0.00 0.00 82 1016.6
20260506122430 24 177 0.0 0.0 0.00 0.00 0.00 82 1016.6
20260506120243 23 177 0.0 0.0 0.00 0.00 0.00 82 1016.5
20260506115253 23 177 0.0 0.0 0.00 0.00 0.00 82 1016.4
20260506114250 23 177 0.0 0.0 0.00 0.00 0.00 82 1016.3
20260506113231 23 177 1.6 4.8 0.00 0.00 0.00 82 1016.2
20260506112157 23 200 1.6 4.8 0.00 0.00 0.00 82 1016.3
20260506111145 23 213 3.2 4.8 0.00 0.00 0.00 81 1016.3
20260506110143 23 231 3.2 4.8 0.00 0.00 0.00 81 1016.2
20260506105129 24 223 3.2 4.8 0.00 0.00 0.00 80 1016.0
20260506104052 24 172 3.2 6.4 0.00 0.00 0.00 78 1015.8
20260506103044 24 146 3.2 9.7 0.00 0.00 0.00 77 1015.6
20260506102034 24 161 4.8 9.7 0.00 0.00 0.00 77 1015.4
20260506101010 24 146 4.8 11.3 0.00 0.00 0.00 77 1015.5
20260506095951 24 130 4.8 11.3 0.00 0.00 0.00 76 1015.4
20260506094954 24 144 4.8 11.3 0.00 0.00 0.00 76 1015.5
20260506093938 24 144 4.8 11.3 0.00 0.00 0.00 77 1015.5
20260506091806 24 116 3.2 11.3 0.00 0.00 0.00 76 1015.3
20260506090730 24 136 4.8 12.9 0.00 0.00 0.00 76 1015.3
20260506085737 24 101 4.8 16.1 0.00 0.00 0.00 76 1015.2
20260506084717 24 124 4.8 16.1 0.00 0.00 0.00 76 1015.1
20260506083738 24 115 6.4 14.5 0.00 0.00 0.00 75 1015.2
20260506081613 24 132 4.8 12.9 0.00 0.00 0.00 76 1015.3
20260506080553 25 120 6.4 12.9 0.00 0.00 0.00 76 1015.2
20260506073459 25 115 4.8 12.9 0.00 0.00 0.00 74 1015.3
20260506072459 25 131 4.8 14.5 0.00 0.00 0.00 74 1015.3
20260506071439 25 134 4.8 14.5 0.00 0.00 0.00 74 1015.4
20260506070433 25 135 3.2 9.7 0.00 0.00 0.00 74 1015.6
20260506062328 25 119 4.8 14.5 0.00 0.00 0.00 74 1015.7
20260506061326 25 94 4.8 14.5 0.00 0.00 0.00 74 1015.8
20260506060347 25 101 6.4 12.9 0.00 0.00 0.00 74 1015.8
20260506051059 25 94 4.8 11.3 0.00 0.00 0.00 70 1016.1
20260506045013 25 126 6.4 16.1 0.00 0.00 0.00 70 1016.0
20260506043939 25 114 8.0 14.5 0.00 0.00 0.00 70 1016.0
20260506042908 25 104 6.4 16.1 0.00 0.00 0.00 70 1016.0
20260506040738 25 88 8.0 16.1 0.00 0.00 0.00 70 1016.2
20260506035730 25 129 6.4 16.1 0.00 0.00 0.00 70 1016.3
20260506034746 25 92 4.8 14.5 0.00 0.00 0.00 70 1016.3
20260506033714 25 111 6.4 19.3 0.00 0.00 0.00 69 1016.3
20260506032721 25 102 6.4 19.3 0.00 0.00 0.00 69 1016.4
20260506030536 25 92 6.4 14.5 0.00 0.00 0.00 70 1016.3
20260506025555 25 99 6.4 14.5 0.00 0.00 0.00 70 1016.4
20260506021115 25 104 6.4 14.5 0.00 0.00 0.00 70 1016.1
20260506020107 25 121 6.4 14.5 0.00 0.00 0.00 70 1016.1
20260506014024 25 80 6.4 17.7 0.00 0.00 0.00 69 1015.9
20260506013033 25 80 6.4 16.1 0.00 0.00 0.00 69 1015.7
20260506012028 25 103 8.0 19.3 0.00 0.00 0.00 68 1015.4
20260506011042 25 113 8.0 19.3 0.00 0.00 0.00 69 1015.2
20260506004856 25 0 6.4 16.1 0.00 0.00 0.00 67 1015.3
20260506003914 25 76 6.4 17.7 0.00 0.00 0.00 69 1015.1
20260506002841 25 99 6.4 17.7 0.00 0.00 0.00 66 1015.2
20260506001835 25 0 6.4 16.1 0.00 0.00 0.00 67 1015.2
20260506000840 25 77 6.4 16.1 0.00 0.00 0.00 67 1015.1
20260505235822 25 42 4.8 16.1 0.00 0.00 0.00 67 1015.0
20260505233621 25 81 8.0 16.1 0.00 0.00 0.00 62 1015.0
20260505232622 25 93 6.4 16.1 0.00 0.00 0.00 61 1015.0
20260505230531 25 88 6.4 14.5 0.00 0.00 0.00 63 1015.2
20260505225542 25 66 8.0 17.7 0.00 0.00 0.00 64 1015.2
20260505224554 26 53 8.0 17.7 0.00 0.00 0.00 63 1015.3
20260505223518 26 88 6.4 17.7 0.00 0.00 0.00 63 1015.4
20260505222507 26 40 8.0 19.3 0.00 0.00 0.00 64 1015.4
20260505221510 26 42 8.0 19.3 0.00 0.00 0.00 61 1015.3
20260505220516 26 46 8.0 17.7 0.00 0.00 0.00 62 1015.3
20260505215444 26 57 8.0 17.7 0.00 0.00 0.00 59 1015.2
20260505214410 26 67 9.7 17.7 0.00 0.00 0.00 60 1015.2
20260505213430 26 40 8.0 17.7 0.00 0.00 0.00 63 1015.2
20260505211330 26 61 8.0 19.3 0.00 0.00 0.00 63 1015.0
20260505210344 26 78 9.7 17.7 0.00 0.00 0.00 63 1015.0
20260505205404 26 46 9.7 19.3 0.00 0.00 0.00 63 1015.1
20260505204407 26 50 8.0 19.3 0.00 0.00 0.00 63 1015.0
20260505203405 26 76 9.7 19.3 0.00 0.00 0.00 60 1015.1
20260505202412 26 49 8.0 19.3 0.00 0.00 0.00 59 1015.2
20260505201416 26 94 11.3 19.3 0.00 0.00 0.00 61 1015.3
20260505200425 26 59 9.7 17.7 0.00 0.00 0.00 61 1015.2
20260505194206 26 65 8.0 16.1 0.00 0.00 0.00 62 1015.6